Regional Weather Roundup
Issued by NWS

Home | Current Version | Previous Version | Graphics & Text | Print | Product List | Glossary On
Versions: 1 2 3 4 5 6 7 8 9 10 11 12 13 14 15 16 17 18 19 20 21 22 23 24 25 26 27 28 29 30 31 32 33 34 35 36 37 38 39 40 41 42 43 44 45 46 47 48 49 50
000
ASUS45 KPSR 292010
RWRAZ

ARIZONA REGIONAL HOURLY WEATHER ROUNDUP
NATIONAL WEATHER SERVICE PHOENIX AZ
100 PM MST THU JAN 29 2015

NOTE: FAIR INDICATES FEW OR NO CLOUDS BELOW 12,000 FEET WITH NO
SIGNIFICANT WEATHER AND/OR OBSTRUCTIONS TO VISIBILITY.

AZZ001>003-036-292100-
NORTHWEST ARIZONA

CITY           SKY/WX    TMP DP  RH WIND       PRES   REMARKS
BULLHEAD CITY  CLOUDY    68  39  34 N21G28    30.08F
KINGMAN        CLOUDY    59  40  49 N7        30.14F
$$

AZZ004>008-015-016-018-292100-
NORTH CENTRAL ARIZONA

CITY           SKY/WX    TMP DP  RH WIND       PRES   REMARKS
GRAND CANYON   CLOUDY    50  32  50 E15       30.25F
PRESCOTT       CLOUDY    58  27  30 SE9       30.17F
FLAGSTAFF      CLOUDY    47  30  51 E8        30.25F
PAYSON         PTSUNNY   61  34  36 VRB7G13   30.20F
$$

AZZ009>014-017-292100-
NORTHEAST ARIZONA

CITY           SKY/WX    TMP DP  RH WIND       PRES   REMARKS
WINSLOW        CLOUDY    52  34  50 VRB3      30.25F
SAINT JOHNS    CLOUDY    55  32  41 VRB3      30.22F
WINDOW ROCK    CLOUDY    51  28  41 E8        30.31F
SHOW LOW       PTSUNNY   48  32  53 CALM      30.27F
$$

AZZ023-292100-
GREATER PHOENIX AREA

CITY           SKY/WX    TMP DP  RH WIND       PRES   REMARKS
PHOENIX        CLOUDY    68  43  40 NE6       30.04F
BUCKEYE          N/A     64  55  72 N5        30.04F
GLENDALE       CLOUDY    66  50  55 CALM      30.06F
LUKE AFB       NOT AVBL
DEER VALLEY    CLOUDY    67  46  47 S6        30.05F
SCOTTSDALE     CLOUDY    67  48  50 CALM      30.06F
MESA-GATEWAY   CLOUDY    64  52  63 VRB5      30.07F
CHANDLER       CLOUDY    66  54  63 N5        30.05F
$$

AZZ027-028-292100-
SOUTHWEST MARICOPA COUNTY AND PINAL COUNTY

CITY           SKY/WX    TMP DP  RH WIND       PRES   REMARKS
CASA GRANDE    CLOUDY    64  52  63 CALM      30.05F
GILA BEND      CLOUDY    64  53  68 CALM      30.04F
$$

AZZ503-504-507>509-292100-
SOUTHEAST ARIZONA

CITY           SKY/WX    TMP DP  RH WIND       PRES   REMARKS
TUCSON         CLOUDY    69  46  43 W6        30.09F
DAVIS-MONTHAN  CLOUDY    68  44  42 W2        30.07F
RYAN FIELD       N/A     66  48  52 CALM      30.09F
NOGALES        CLOUDY    70  38  31 S10       30.11F
SIERRA VISTA   LGT RAIN  63  39  42 SE9       30.17F
DOUGLAS        CLOUDY    62  36  37 S5        30.17F
SAFFORD        CLOUDY    61  35  37 S8        30.15F
$$

AZZ020-021-025-026-031-292100-
SOUTHWEST ARIZONA

CITY           SKY/WX    TMP DP  RH WIND       PRES   REMARKS
YUMA           CLOUDY    73  46  38 N8        30.02F
$$

CAZ031-033-041-043-047-048-061-292100-
SOUTHERN CALIFORNIA

CITY           SKY/WX    TMP DP  RH WIND       PRES   REMARKS
DOWNTOWN L.A.  CLOUDY    74  41  30 CALM      30.02F
L.A. AIRPORT   CLOUDY    71  44  37 CALM      30.03F
SAN DIEGO      CLOUDY    68  45  43 CALM      30.05F
BURBANK        CLOUDY    70  40  33 CALM      30.04F
ONTARIO        CLOUDY    73  40  30 NW3       30.04F
RIVERSIDE      PTSUNNY   73  40  30 NE8       30.05F
PALM SPRINGS   CLOUDY    74  39  28 VRB5      30.07F
EL CENTRO NAS  CLOUDY    70  50  49 NW3       30.03F
IMPERIAL       CLOUDY    69  52  54 NW3       30.03F
BLYTHE         CLOUDY    66  50  56 NE3       30.05F
NEEDLES        CLOUDY    68  40  35 N10       30.08F
$$

NVZ020-UTZ003-292100-
SOUTHERN NEVADA-UTAH

CITY           SKY/WX    TMP DP  RH WIND       PRES   REMARKS
LAS VEGAS      CLOUDY    62  38  40 W7        30.12F
SALT LAKE CITY PTSUNNY   42  35  76 NW7       30.32F
$$

NMZ009-TXZ055-292100-
NEW MEXICO-WEST TEXAS

CITY           SKY/WX    TMP DP  RH WIND       PRES   REMARKS
ALBUQUERQUE    CLOUDY    51  27  39 E22G31    30.39F
EL PASO        CLOUDY    60  32  34 NE17      30.28F
$$


........................KEY........................
SKY/WX - SKY CONDITION/WEATHER
TMP    - TEMPERATURE IN FAHRENHEIT
DP     - DEW POINT IN FAHRENHEIT
RH     - RELATIVE HUMIDITY IN PERCENT
WIND   - DIRECTION AND SPEED IN MILES PER HOUR (MPH)
VRB    - VARIABLE WIND DIRECTION
PRES   - MEAN SEA LEVEL PRESSURE IN INCHES OF MERCURY
         F - FALLING PRESSURE   R - RISING PRESSURE
         S - STEADY PRESSURE
VSB    - VISIBILITY IN MILES
HX     - HEAT INDEX IN FAHRENHEIT
WCI    - WIND CHILL INDEX IN FAHRENHEIT
TC     - TEMPERATURE IN CELSIUS WHICH IS ALSO KNOWN AS
         TEMPERATURE IN CENTIGRADE
AFB    - AIR FORCE BASE
         LUKE AFB IS LUKE AIR FORCE BASE
         DAVIS-MONTHAN IS DAVIS-MONTHAN AIR FORCE BASE
NAS    - NAVAL AIR STATION
         EL CENTRO NAS IS EL CENTRO NAVAL AIR STATION
N/A    - NOT AVAILABLE


USA.gov is the U.S. government's official web portal to all federal, state and local government web resources and services.